sat.trackr.live / text

‹ back to catalog

CORAL

NORAD 67684 · 1998-067YA

PAYLOAD ACTIVE UNKNOWN

§ Identity

Operator
Country
IT
Launch date
1998-11-20
Launch site
TYMSC
Launch vehicle
Mass (kg)
RCS (m²)

Purposes: station

External: N2YO · Heavens-Above · Gunter

§ Orbital elements

Epoch: 2026-07-31T14:54:47.018592Z

Period
88.20 min
Inclination
51.5992°
Eccentricity
0.0013311
Mean motion
16.32675236 rev/d
Perigee alt
176.6 km
Apogee alt
194.1 km
Semi-major
6,563.5 km
B*
1.0997e-3
RAAN
54.2541°
Arg perigee
279.5039°
Mean anomaly
80.4480°
Rev number
2,743

§ Raw data

CORAL1 67684U 98067YA  26212.62137753  .06930230  12221-4  10997-2 0  99912 67684  51.5992  54.2541 0013311 279.5039  80.4480 16.32675236 27430

JSON: /api/v1/satellites/67684 · /tle

For live sub-satellite position, see the globe view (requires WebGL).

§ Visibility from observer

Set your observer location to see the next 7 days of passes ≥ 10°. The values pass through the URL so the page stays shareable.

No JS? Fill the form by hand. The geolocation button needs JavaScript.

§ Radio — SatNOGS DB

ModeDescriptionDownlinkUplink
MSK AX.100 Mode 5 9k6 AX100 (inactive) 437.300 MHz

1 transmitter · refreshed weekly from db.satnogs.org